Year,Month,Day,Hour,Minute,Value (Times are PST for temperature in C)
2008,10,19,00,00,1.00
2008,10,19,00,01,1.00
2008,10,19,00,02,1.00
2008,10,19,00,03,1.00
2008,10,19,00,04,1.00
2008,10,19,00,05,1.00
2008,10,19,00,06,1.00
2008,10,19,00,07,1.00
2008,10,19,00,08,1.00
2008,10,19,00,09,1.00
2008,10,19,00,10,1.00
2008,10,19,00,11,0.90
2008,10,19,00,12,0.90
2008,10,19,00,13,0.90
2008,10,19,00,14,0.90
2008,10,19,00,15,0.90
2008,10,19,00,16,0.90
2008,10,19,00,17,0.90
2008,10,19,00,18,0.90
2008,10,19,00,19,0.90
2008,10,19,00,20,0.80
2008,10,19,00,21,0.80
2008,10,19,00,22,0.80
2008,10,19,00,23,0.80
2008,10,19,00,24,0.80
2008,10,19,00,25,0.80
2008,10,19,00,26,0.80
2008,10,19,00,27,0.80
2008,10,19,00,28,0.80
2008,10,19,00,29,0.80
2008,10,19,00,30,0.80
2008,10,19,00,31,0.80
2008,10,19,00,32,0.80
2008,10,19,00,33,0.80
2008,10,19,00,34,0.80
2008,10,19,00,35,0.80
2008,10,19,00,36,0.70
2008,10,19,00,37,0.70
2008,10,19,00,38,0.70
2008,10,19,00,39,0.70
2008,10,19,00,40,0.70
2008,10,19,00,41,0.70
2008,10,19,00,42,0.70
2008,10,19,00,43,0.70
2008,10,19,00,44,0.70
2008,10,19,00,45,0.70
2008,10,19,00,46,0.70
2008,10,19,00,47,0.70
2008,10,19,00,48,0.70
2008,10,19,00,49,0.70
2008,10,19,00,50,0.60
2008,10,19,00,51,0.60
2008,10,19,00,52,0.60
2008,10,19,00,53,0.60
2008,10,19,00,54,0.60
2008,10,19,00,55,0.60
2008,10,19,00,56,0.60
2008,10,19,00,57,0.60
2008,10,19,00,58,0.60
2008,10,19,00,59,0.60
2008,10,19,01,00,0.60
2008,10,19,01,01,0.60
2008,10,19,01,02,0.60
2008,10,19,01,03,0.60
2008,10,19,01,04,0.60
2008,10,19,01,05,0.60
2008,10,19,01,06,0.60
2008,10,19,01,07,0.60
2008,10,19,01,08,0.60
2008,10,19,01,09,0.60
2008,10,19,01,10,0.60
2008,10,19,01,11,0.60
2008,10,19,01,12,0.60
2008,10,19,01,13,0.60
2008,10,19,01,14,0.60
2008,10,19,01,15,0.50
2008,10,19,01,16,0.50
2008,10,19,01,17,0.50
2008,10,19,01,18,0.50
2008,10,19,01,19,0.50
2008,10,19,01,20,0.50
2008,10,19,01,21,0.50
2008,10,19,01,22,0.40
2008,10,19,01,23,0.40
2008,10,19,01,24,0.40
2008,10,19,01,25,0.40
2008,10,19,01,26,0.40
2008,10,19,01,27,0.40
2008,10,19,01,28,0.40
2008,10,19,01,29,0.40
2008,10,19,01,30,0.40
2008,10,19,01,31,0.40
2008,10,19,01,32,0.40
2008,10,19,01,33,0.40
2008,10,19,01,34,0.40
2008,10,19,01,35,0.40
2008,10,19,01,36,0.40
2008,10,19,01,37,0.40
2008,10,19,01,38,0.40
2008,10,19,01,39,0.40
2008,10,19,01,40,0.40
2008,10,19,01,41,0.40
2008,10,19,01,42,0.40
2008,10,19,01,43,0.40
2008,10,19,01,44,0.40
2008,10,19,01,45,0.40
2008,10,19,01,46,0.40
2008,10,19,01,47,0.40
2008,10,19,01,48,0.40
2008,10,19,01,49,0.40
2008,10,19,01,50,0.40
2008,10,19,01,51,0.40
2008,10,19,01,52,0.40
2008,10,19,01,53,0.40
2008,10,19,01,54,0.40
2008,10,19,01,55,0.40
2008,10,19,01,56,0.40
2008,10,19,01,57,0.40
2008,10,19,01,58,0.50
2008,10,19,01,59,0.50
2008,10,19,02,00,0.50
2008,10,19,02,01,0.50
2008,10,19,02,02,0.50
2008,10,19,02,03,0.50
2008,10,19,02,04,0.40
2008,10,19,02,05,0.40
2008,10,19,02,06,0.40
2008,10,19,02,07,0.40
2008,10,19,02,08,0.40
2008,10,19,02,09,0.40
2008,10,19,02,10,0.40
2008,10,19,02,11,0.40
2008,10,19,02,12,0.40
2008,10,19,02,13,0.30
2008,10,19,02,14,0.30
2008,10,19,02,15,0.30
2008,10,19,02,16,0.40
2008,10,19,02,17,0.40
2008,10,19,02,18,0.40
2008,10,19,02,19,0.40
2008,10,19,02,20,0.50
2008,10,19,02,21,0.50
2008,10,19,02,22,0.60
2008,10,19,02,23,0.60
2008,10,19,02,24,0.60
2008,10,19,02,25,0.60
2008,10,19,02,26,0.70
2008,10,19,02,27,0.70
2008,10,19,02,28,0.70
2008,10,19,02,29,0.70
2008,10,19,02,30,0.70
2008,10,19,02,31,0.70
2008,10,19,02,32,0.70
2008,10,19,02,33,0.70
2008,10,19,02,34,0.70
2008,10,19,02,35,0.60
2008,10,19,02,36,0.60
2008,10,19,02,37,0.60
2008,10,19,02,38,0.60
2008,10,19,02,39,0.60
2008,10,19,02,40,0.60
2008,10,19,02,41,0.60
2008,10,19,02,42,0.60
2008,10,19,02,43,0.50
2008,10,19,02,44,0.50
2008,10,19,02,45,0.50
2008,10,19,02,46,0.50
2008,10,19,02,47,0.40
2008,10,19,02,48,0.40
2008,10,19,02,49,0.40
2008,10,19,02,50,0.40
2008,10,19,02,51,0.50
2008,10,19,02,52,0.50
2008,10,19,02,53,0.50
2008,10,19,02,54,0.50
2008,10,19,02,55,0.50
2008,10,19,02,56,0.40
2008,10,19,02,57,0.50
2008,10,19,02,58,0.50
2008,10,19,02,59,0.50
2008,10,19,03,00,0.50
2008,10,19,03,01,0.50
2008,10,19,03,02,0.50
2008,10,19,03,03,0.60
2008,10,19,03,04,0.60
2008,10,19,03,05,0.60
2008,10,19,03,06,0.60
2008,10,19,03,07,0.60
2008,10,19,03,08,0.70
2008,10,19,03,09,0.70
2008,10,19,03,10,0.70
2008,10,19,03,11,0.70
2008,10,19,03,12,0.70
2008,10,19,03,13,0.80
2008,10,19,03,14,0.80
2008,10,19,03,15,0.80
2008,10,19,03,16,0.80
2008,10,19,03,17,0.80
2008,10,19,03,18,0.80
2008,10,19,03,19,0.80
2008,10,19,03,20,0.80
2008,10,19,03,21,0.80
2008,10,19,03,22,0.90
2008,10,19,03,23,0.90
2008,10,19,03,24,0.90
2008,10,19,03,25,0.90
2008,10,19,03,26,0.80
2008,10,19,03,27,0.90
2008,10,19,03,28,0.90
2008,10,19,03,29,0.90
2008,10,19,03,30,0.90
2008,10,19,03,31,1.00
2008,10,19,03,32,1.00
2008,10,19,03,33,1.00
2008,10,19,03,34,1.00
2008,10,19,03,35,0.90
2008,10,19,03,36,1.00
2008,10,19,03,37,0.90
2008,10,19,03,38,1.00
2008,10,19,03,39,1.00
2008,10,19,03,40,1.00
2008,10,19,03,41,1.00
2008,10,19,03,42,1.00
2008,10,19,03,43,0.90
2008,10,19,03,44,0.90
2008,10,19,03,45,0.90
2008,10,19,03,46,0.90
2008,10,19,03,47,0.90
2008,10,19,03,48,0.90
2008,10,19,03,49,0.90
2008,10,19,03,50,0.80
2008,10,19,03,51,0.80
2008,10,19,03,52,0.80
2008,10,19,03,53,0.80
2008,10,19,03,54,0.80
2008,10,19,03,55,0.80
2008,10,19,03,56,0.70
2008,10,19,03,57,0.70
2008,10,19,03,58,0.70
2008,10,19,03,59,0.70
2008,10,19,04,00,0.70
2008,10,19,04,01,0.70
2008,10,19,04,02,0.70
2008,10,19,04,03,0.70
2008,10,19,04,04,0.70
2008,10,19,04,05,0.60
2008,10,19,04,26,0.40
2008,10,19,04,43,0.20
2008,10,19,04,54,0.20
2008,10,19,05,07,0.00
2008,10,19,05,19,0.00
2008,10,19,05,30,0.10
2008,10,19,05,44,0.10
2008,10,19,05,57,0.10
2008,10,19,06,13,0.00
2008,10,19,06,24,0.10
2008,10,19,06,35,-0.10
2008,10,19,06,47,-0.20
2008,10,19,06,58,-0.20
2008,10,19,07,13,-0.10
2008,10,19,07,24,-0.10
2008,10,19,07,35,0.10
2008,10,19,07,47,0.30
2008,10,19,08,00,0.50
2008,10,19,08,12,1.30
2008,10,19,08,24,1.50
2008,10,19,08,35,3.00
2008,10,19,08,49,3.80
2008,10,19,09,00,3.90
2008,10,19,09,11,4.40
2008,10,19,09,17,4.50
2008,10,19,09,18,4.50
2008,10,19,09,19,4.50
2008,10,19,09,20,4.50
2008,10,19,09,21,4.60
2008,10,19,09,22,4.60
2008,10,19,09,23,4.60
2008,10,19,09,24,4.60
2008,10,19,09,25,4.70
2008,10,19,09,26,4.70
2008,10,19,09,27,4.70
2008,10,19,09,28,4.80
2008,10,19,09,29,4.80
2008,10,19,09,30,4.90
2008,10,19,09,31,4.90
2008,10,19,09,32,4.90
2008,10,19,09,33,4.90
2008,10,19,09,34,5.00
2008,10,19,09,35,5.00
2008,10,19,09,36,5.00
2008,10,19,09,37,5.10
2008,10,19,09,38,5.10
2008,10,19,09,39,5.10
2008,10,19,09,40,5.10
2008,10,19,09,41,5.20
2008,10,19,09,42,5.20
2008,10,19,09,43,5.30
2008,10,19,09,44,5.30
2008,10,19,09,45,5.30
2008,10,19,09,46,5.40
2008,10,19,09,47,5.40
2008,10,19,09,48,5.50
2008,10,19,09,49,5.50
2008,10,19,09,50,5.60
2008,10,19,09,51,5.60
2008,10,19,09,52,5.60
2008,10,19,09,53,5.60
2008,10,19,09,54,5.60
2008,10,19,09,55,5.70
2008,10,19,09,56,5.70
2008,10,19,09,57,5.70
2008,10,19,09,58,5.70
2008,10,19,09,59,5.70
2008,10,19,10,00,5.70
2008,10,19,10,01,5.80
2008,10,19,10,02,5.80
2008,10,19,10,03,5.80
2008,10,19,10,04,5.80
2008,10,19,10,05,5.80
2008,10,19,10,06,5.80
2008,10,19,10,07,5.90
2008,10,19,10,08,5.90
2008,10,19,10,09,5.90
2008,10,19,10,10,5.90
2008,10,19,10,11,5.90
2008,10,19,10,12,6.00
2008,10,19,10,13,6.00
2008,10,19,10,14,6.10
2008,10,19,10,15,6.10
2008,10,19,10,16,6.10
2008,10,19,10,17,6.20
2008,10,19,10,18,6.20
2008,10,19,10,19,6.20
2008,10,19,10,20,6.20
2008,10,19,10,21,6.30
2008,10,19,10,22,6.30
2008,10,19,10,23,6.30
2008,10,19,10,24,6.30
2008,10,19,10,25,6.30
2008,10,19,10,26,6.30
2008,10,19,10,27,6.30
2008,10,19,10,28,6.30
2008,10,19,10,29,6.30
2008,10,19,10,30,6.30
2008,10,19,10,31,6.30
2008,10,19,10,32,6.30
2008,10,19,10,33,6.30
2008,10,19,10,34,6.30
2008,10,19,10,35,6.30
2008,10,19,10,36,6.30
2008,10,19,10,37,6.30
2008,10,19,10,38,6.30
2008,10,19,10,39,6.30
2008,10,19,10,40,6.40
2008,10,19,10,41,6.40
2008,10,19,10,42,6.40
2008,10,19,10,43,6.40
2008,10,19,10,44,6.40
2008,10,19,10,45,6.40
2008,10,19,10,46,6.40
2008,10,19,10,47,6.40
2008,10,19,10,48,6.40
2008,10,19,10,49,6.50
2008,10,19,10,50,6.50
2008,10,19,10,51,6.50
2008,10,19,10,52,6.60
2008,10,19,10,53,6.60
2008,10,19,10,54,6.60
2008,10,19,10,55,6.60
2008,10,19,10,56,6.60
2008,10,19,10,57,6.60
2008,10,19,10,58,6.60
2008,10,19,10,59,6.60
2008,10,19,11,00,6.60
2008,10,19,11,01,6.60
2008,10,19,11,02,6.70
2008,10,19,11,03,6.70
2008,10,19,11,04,6.70
2008,10,19,11,05,6.70
2008,10,19,11,06,6.70
2008,10,19,11,07,6.70
2008,10,19,11,08,6.70
2008,10,19,11,09,6.80
2008,10,19,11,10,6.80
2008,10,19,11,11,6.80
2008,10,19,11,12,6.80
2008,10,19,11,13,6.80
2008,10,19,11,14,6.80
2008,10,19,11,15,6.80
2008,10,19,11,16,6.80
2008,10,19,11,17,6.80
2008,10,19,11,18,6.80
2008,10,19,11,19,6.80
2008,10,19,11,20,6.80
2008,10,19,11,21,6.80
2008,10,19,11,22,6.80
2008,10,19,11,23,6.80
2008,10,19,11,24,6.80
2008,10,19,11,25,6.80
2008,10,19,11,26,6.80
2008,10,19,11,27,6.80
2008,10,19,11,28,6.80
2008,10,19,11,29,6.80
2008,10,19,11,30,6.80
2008,10,19,11,31,6.80
2008,10,19,11,32,6.80
2008,10,19,11,33,6.90
2008,10,19,11,34,6.90
2008,10,19,11,35,6.90
2008,10,19,11,36,6.90
2008,10,19,11,37,6.90
2008,10,19,11,38,6.90
2008,10,19,11,39,7.00
2008,10,19,11,40,7.00
2008,10,19,11,41,7.00
2008,10,19,11,42,7.10
2008,10,19,11,43,7.10
2008,10,19,11,44,7.10
2008,10,19,11,45,7.10
2008,10,19,11,46,7.10
2008,10,19,11,47,7.20
2008,10,19,11,48,7.20
2008,10,19,11,49,7.20
2008,10,19,11,50,7.20
2008,10,19,11,51,7.20
2008,10,19,11,52,7.20
2008,10,19,11,53,7.20
2008,10,19,11,54,7.20
2008,10,19,11,55,7.20
2008,10,19,11,56,7.20
2008,10,19,11,57,7.20
2008,10,19,11,58,7.30
2008,10,19,11,59,7.30
2008,10,19,12,00,7.30
2008,10,19,12,01,7.30
2008,10,19,12,02,7.40
2008,10,19,12,03,7.40
2008,10,19,12,04,7.40
2008,10,19,12,05,7.40
2008,10,19,12,06,7.40
2008,10,19,12,07,7.40
2008,10,19,12,08,7.40
2008,10,19,12,09,7.40
2008,10,19,12,10,7.40
2008,10,19,12,11,7.40
2008,10,19,12,12,7.40
2008,10,19,12,13,7.40
2008,10,19,12,14,7.40
2008,10,19,12,15,7.40
2008,10,19,12,16,7.40
2008,10,19,12,17,7.40
2008,10,19,12,18,7.40
2008,10,19,12,19,7.40
2008,10,19,12,20,7.40
2008,10,19,12,21,7.40
2008,10,19,12,22,7.40
2008,10,19,12,23,7.40
2008,10,19,12,24,7.40
2008,10,19,12,25,7.40
2008,10,19,12,26,7.40
2008,10,19,12,27,7.40
2008,10,19,12,28,7.40
2008,10,19,12,29,7.40
2008,10,19,12,30,7.40
2008,10,19,12,31,7.40
2008,10,19,12,32,7.50
2008,10,19,12,33,7.50
2008,10,19,12,34,7.60
2008,10,19,12,35,7.60
2008,10,19,12,36,7.60
2008,10,19,12,37,7.60
2008,10,19,12,38,7.70
2008,10,19,12,39,7.70
2008,10,19,12,40,7.70
2008,10,19,12,41,7.80
2008,10,19,12,42,7.80
2008,10,19,12,43,7.90
2008,10,19,12,44,7.90
2008,10,19,12,45,7.90
2008,10,19,12,46,8.00
2008,10,19,12,47,8.00
2008,10,19,12,48,8.10
2008,10,19,12,49,8.10
2008,10,19,12,50,8.10
2008,10,19,12,51,8.10
2008,10,19,12,52,8.10
2008,10,19,12,53,8.20
2008,10,19,12,54,8.20
2008,10,19,12,55,8.20
2008,10,19,12,56,8.20
2008,10,19,12,57,8.20
2008,10,19,12,58,8.30
2008,10,19,12,59,8.30
2008,10,19,13,00,8.30
2008,10,19,13,01,8.40
2008,10,19,13,02,8.40
2008,10,19,13,03,8.40
2008,10,19,13,04,8.40
2008,10,19,13,05,8.40
2008,10,19,13,06,8.40
2008,10,19,13,07,8.40
2008,10,19,13,08,8.30
2008,10,19,13,09,8.30
2008,10,19,13,10,8.30
2008,10,19,13,11,8.30
2008,10,19,13,12,8.30
2008,10,19,13,13,8.30
2008,10,19,13,14,8.30
2008,10,19,13,15,8.40
2008,10,19,13,16,8.40
2008,10,19,13,17,8.40
2008,10,19,13,18,8.50
2008,10,19,13,19,8.50
2008,10,19,13,20,8.60
2008,10,19,13,21,8.60
2008,10,19,13,22,8.70
2008,10,19,13,23,8.80
2008,10,19,13,24,8.80
2008,10,19,13,25,8.80
2008,10,19,13,26,8.90
2008,10,19,13,27,8.90
2008,10,19,13,28,8.90
2008,10,19,13,29,9.00
2008,10,19,13,30,9.00
2008,10,19,13,31,9.10
2008,10,19,13,32,9.10
2008,10,19,13,33,9.10
2008,10,19,13,34,9.00
2008,10,19,13,35,9.00
2008,10,19,13,36,9.00
2008,10,19,13,37,9.00
2008,10,19,13,38,9.00
2008,10,19,13,39,9.10
2008,10,19,13,40,9.10
2008,10,19,13,41,9.10
2008,10,19,13,42,9.10
2008,10,19,13,43,9.10
2008,10,19,13,44,9.10
2008,10,19,13,45,9.10
2008,10,19,13,46,9.10
2008,10,19,13,47,9.00
2008,10,19,13,48,9.00
2008,10,19,13,49,9.00
2008,10,19,13,50,9.00
2008,10,19,13,51,9.00
2008,10,19,13,52,9.00
2008,10,19,13,53,9.00
2008,10,19,13,54,9.10
2008,10,19,13,55,9.10
2008,10,19,13,56,9.10
2008,10,19,13,57,9.10
2008,10,19,13,58,9.10
2008,10,19,13,59,9.20
2008,10,19,14,00,9.20
2008,10,19,14,01,9.20
2008,10,19,14,02,9.20
2008,10,19,14,03,9.20
2008,10,19,14,04,9.20
2008,10,19,14,05,9.20
2008,10,19,14,06,9.20
2008,10,19,14,07,9.20
2008,10,19,14,08,9.10
2008,10,19,14,09,9.10
2008,10,19,14,10,9.10
2008,10,19,14,11,9.10
2008,10,19,14,12,9.10
2008,10,19,14,13,9.10
2008,10,19,14,14,9.10
2008,10,19,14,15,9.00
2008,10,19,14,16,9.00
2008,10,19,14,17,9.00
2008,10,19,14,18,9.00
2008,10,19,14,19,9.00
2008,10,19,14,20,9.00
2008,10,19,14,21,9.00
2008,10,19,14,22,9.00
2008,10,19,14,23,9.00
2008,10,19,14,24,9.00
2008,10,19,14,25,9.00
2008,10,19,14,26,9.10
2008,10,19,14,27,9.10
2008,10,19,14,28,9.10
2008,10,19,14,29,9.10
2008,10,19,14,30,9.20
2008,10,19,14,31,9.20
2008,10,19,14,32,9.20
2008,10,19,14,33,9.20
2008,10,19,14,34,9.20
2008,10,19,14,35,9.20
2008,10,19,14,36,9.20
2008,10,19,14,37,9.20
2008,10,19,14,38,9.20
2008,10,19,14,39,9.20
2008,10,19,14,40,9.20
2008,10,19,14,41,9.20
2008,10,19,14,42,9.20
2008,10,19,14,43,9.20
2008,10,19,14,44,9.20
2008,10,19,14,45,9.20
2008,10,19,14,46,9.20
2008,10,19,14,47,9.20
2008,10,19,14,48,9.20
2008,10,19,14,49,9.20
2008,10,19,14,50,9.20
2008,10,19,14,51,9.20
2008,10,19,14,52,9.20
2008,10,19,14,53,9.20
2008,10,19,14,54,9.20
2008,10,19,14,55,9.20
2008,10,19,14,56,9.30
2008,10,19,14,57,9.30
2008,10,19,14,58,9.30
2008,10,19,14,59,9.30
2008,10,19,15,00,9.40
2008,10,19,15,01,9.40
2008,10,19,15,02,9.50
2008,10,19,15,03,9.50
2008,10,19,15,04,9.50
2008,10,19,15,05,9.60
2008,10,19,15,06,9.60
2008,10,19,15,07,9.60
2008,10,19,15,08,9.50
2008,10,19,15,09,9.50
2008,10,19,15,10,9.50
2008,10,19,15,11,9.50
2008,10,19,15,12,9.50
2008,10,19,15,13,9.50
2008,10,19,15,14,9.50
2008,10,19,15,15,9.50
2008,10,19,15,16,9.50
2008,10,19,15,17,9.50
2008,10,19,15,18,9.50
2008,10,19,15,19,9.50
2008,10,19,15,20,9.60
2008,10,19,15,21,9.60
2008,10,19,15,22,9.60
2008,10,19,15,23,9.60
2008,10,19,15,24,9.60
2008,10,19,15,25,9.60
2008,10,19,15,26,9.60
2008,10,19,15,27,9.60
2008,10,19,15,28,9.60
2008,10,19,15,29,9.60
2008,10,19,15,30,9.50
2008,10,19,15,31,9.50
2008,10,19,15,32,9.40
2008,10,19,15,33,9.30
2008,10,19,15,34,9.30
2008,10,19,15,35,9.30
2008,10,19,15,36,9.30
2008,10,19,15,37,9.30
2008,10,19,15,38,9.30
2008,10,19,15,39,9.30
2008,10,19,15,40,9.30
2008,10,19,15,41,9.30
2008,10,19,15,42,9.30
2008,10,19,15,43,9.30
2008,10,19,15,44,9.40
2008,10,19,15,45,9.40
2008,10,19,15,46,9.50
2008,10,19,15,47,9.60
2008,10,19,15,48,9.60
2008,10,19,15,49,9.60
2008,10,19,15,50,9.70
2008,10,19,15,51,9.70
2008,10,19,15,52,9.80
2008,10,19,15,53,9.80
2008,10,19,15,54,9.80
2008,10,19,15,55,9.80
2008,10,19,15,56,9.80
2008,10,19,15,57,9.80
2008,10,19,15,58,9.80
2008,10,19,15,59,9.80
2008,10,19,16,00,9.80
2008,10,19,16,01,9.80
2008,10,19,16,02,9.90
2008,10,19,16,03,9.90
2008,10,19,16,04,9.90
2008,10,19,16,05,9.80
2008,10,19,16,06,9.80
2008,10,19,16,07,9.80
2008,10,19,16,08,9.80
2008,10,19,16,09,9.80
2008,10,19,16,10,9.70
2008,10,19,16,11,9.70
2008,10,19,16,12,9.60
2008,10,19,16,13,9.60
2008,10,19,16,14,9.60
2008,10,19,16,15,9.50
2008,10,19,16,16,9.50
2008,10,19,16,17,9.50
2008,10,19,16,18,9.40
2008,10,19,16,19,9.40
2008,10,19,16,20,9.40
2008,10,19,16,21,9.40
2008,10,19,16,22,9.40
2008,10,19,16,23,9.30
2008,10,19,16,24,9.30
2008,10,19,16,25,9.30
2008,10,19,16,26,9.30
2008,10,19,16,27,9.30
2008,10,19,16,28,9.30
2008,10,19,16,29,9.20
2008,10,19,16,30,9.20
2008,10,19,16,31,9.10
2008,10,19,16,32,9.10
2008,10,19,16,33,9.10
2008,10,19,16,34,9.00
2008,10,19,16,35,9.00
2008,10,19,16,36,9.00
2008,10,19,16,37,8.90
2008,10,19,16,38,8.90
2008,10,19,16,39,8.90
2008,10,19,16,40,8.90
2008,10,19,16,41,8.90
2008,10,19,16,42,8.90
2008,10,19,16,43,8.80
2008,10,19,16,44,8.80
2008,10,19,16,45,8.80
2008,10,19,16,46,8.70
2008,10,19,16,47,8.70
2008,10,19,16,48,8.70
2008,10,19,16,49,8.70
2008,10,19,16,50,8.70
2008,10,19,16,51,8.70
2008,10,19,16,52,8.70
2008,10,19,16,53,8.70
2008,10,19,16,54,8.60
2008,10,19,16,55,8.60
2008,10,19,16,56,8.60
2008,10,19,16,57,8.60
2008,10,19,16,58,8.60
2008,10,19,16,59,8.60
2008,10,19,17,00,8.60
2008,10,19,17,01,8.60
2008,10,19,17,02,8.50
2008,10,19,17,03,8.50
2008,10,19,17,04,8.50
2008,10,19,17,05,8.50
2008,10,19,17,06,8.50
2008,10,19,17,07,8.50
2008,10,19,17,08,8.50
2008,10,19,17,09,8.40
2008,10,19,17,10,8.40
2008,10,19,17,11,8.40
2008,10,19,17,12,8.30
2008,10,19,17,13,8.30
2008,10,19,17,14,8.30
2008,10,19,17,15,8.20
2008,10,19,17,16,8.20
2008,10,19,17,17,8.20
2008,10,19,17,18,8.20
2008,10,19,17,19,8.20
2008,10,19,17,20,8.10
2008,10,19,17,21,8.10
2008,10,19,17,22,8.10
2008,10,19,17,23,8.00
2008,10,19,17,24,8.00
2008,10,19,17,25,7.90
2008,10,19,17,26,7.90
2008,10,19,17,27,7.90
2008,10,19,17,28,7.90
2008,10,19,17,29,7.90
2008,10,19,17,30,7.90
2008,10,19,17,31,7.90
2008,10,19,17,32,7.90
2008,10,19,17,33,7.80
2008,10,19,17,34,7.80
2008,10,19,17,35,7.80
2008,10,19,17,36,7.80
2008,10,19,17,37,7.80
2008,10,19,17,38,7.70
2008,10,19,17,39,7.70
2008,10,19,17,40,7.70
2008,10,19,17,41,7.70
2008,10,19,17,42,7.70
2008,10,19,17,43,7.70
2008,10,19,17,44,7.70
2008,10,19,17,45,7.70
2008,10,19,17,46,7.70
2008,10,19,17,47,7.70
2008,10,19,17,48,7.70
2008,10,19,17,49,7.70
2008,10,19,17,50,7.70
2008,10,19,17,51,7.60
2008,10,19,17,52,7.60
2008,10,19,17,53,7.60
2008,10,19,17,54,7.60
2008,10,19,17,55,7.50
2008,10,19,17,56,7.50
2008,10,19,17,57,7.40
2008,10,19,17,58,7.40
2008,10,19,17,59,7.40
2008,10,19,18,00,7.40
2008,10,19,18,01,7.40
2008,10,19,18,02,7.40
2008,10,19,18,03,7.40
2008,10,19,18,04,7.40
2008,10,19,18,05,7.40
2008,10,19,18,06,7.40
2008,10,19,18,07,7.30
2008,10,19,18,08,7.30
2008,10,19,18,09,7.30
2008,10,19,18,10,7.30
2008,10,19,18,11,7.30
2008,10,19,18,12,7.30
2008,10,19,18,13,7.30
2008,10,19,18,14,7.20
2008,10,19,18,15,7.20
2008,10,19,18,16,7.20
2008,10,19,18,17,7.20
2008,10,19,18,18,7.20
2008,10,19,18,19,7.20
2008,10,19,18,20,7.20
2008,10,19,18,21,7.20
2008,10,19,18,22,7.20
2008,10,19,18,23,7.20
2008,10,19,18,24,7.20
2008,10,19,18,25,7.20
2008,10,19,18,26,7.20
2008,10,19,18,27,7.10
2008,10,19,18,28,7.10
2008,10,19,18,29,7.10
2008,10,19,18,30,7.10
2008,10,19,18,31,7.10
2008,10,19,18,32,7.10
2008,10,19,18,33,7.00
2008,10,19,18,34,7.00
2008,10,19,18,35,7.00
2008,10,19,18,36,7.00
2008,10,19,18,37,6.90
2008,10,19,18,38,6.90
2008,10,19,18,39,6.90
2008,10,19,18,40,6.90
2008,10,19,18,41,6.80
2008,10,19,18,42,6.80
2008,10,19,18,43,6.80
2008,10,19,18,44,6.80
2008,10,19,18,45,6.80
2008,10,19,18,46,6.80
2008,10,19,18,47,6.70
2008,10,19,18,48,6.70
2008,10,19,18,49,6.70
2008,10,19,18,50,6.70
2008,10,19,18,51,6.70
2008,10,19,18,52,6.60
2008,10,19,18,53,6.60
2008,10,19,18,54,6.60
2008,10,19,18,55,6.60
2008,10,19,18,56,6.60
2008,10,19,18,57,6.60
2008,10,19,18,58,6.60
2008,10,19,18,59,6.60
2008,10,19,19,00,6.50
2008,10,19,19,01,6.50
2008,10,19,19,02,6.50
2008,10,19,19,03,6.50
2008,10,19,19,04,6.50
2008,10,19,19,05,6.50
2008,10,19,19,06,6.50
2008,10,19,19,07,6.50
2008,10,19,19,08,6.50
2008,10,19,19,09,6.40
2008,10,19,19,10,6.40
2008,10,19,19,11,6.40
2008,10,19,19,12,6.40
2008,10,19,19,13,6.40
2008,10,19,19,14,6.40
2008,10,19,19,15,6.40
2008,10,19,19,16,6.40
2008,10,19,19,17,6.40
2008,10,19,19,18,6.40
2008,10,19,19,19,6.40
2008,10,19,19,20,6.40
2008,10,19,19,21,6.30
2008,10,19,19,22,6.30
2008,10,19,19,23,6.30
2008,10,19,19,24,6.30
2008,10,19,19,25,6.30
2008,10,19,19,26,6.30
2008,10,19,19,27,6.30
2008,10,19,19,28,6.30
2008,10,19,19,29,6.20
2008,10,19,19,30,6.20
2008,10,19,19,31,6.20
2008,10,19,19,32,6.20
2008,10,19,19,33,6.20
2008,10,19,19,34,6.20
2008,10,19,19,35,6.20
2008,10,19,19,36,6.20
2008,10,19,19,37,6.10
2008,10,19,19,38,6.10
2008,10,19,19,39,6.10
2008,10,19,19,40,6.10
2008,10,19,19,41,6.10
2008,10,19,19,42,6.10
2008,10,19,19,43,6.10
2008,10,19,19,44,6.10
2008,10,19,19,45,6.10
2008,10,19,19,46,6.00
2008,10,19,19,47,6.00
2008,10,19,19,48,6.00
2008,10,19,19,49,6.00
2008,10,19,19,50,6.00
2008,10,19,19,51,6.00
2008,10,19,19,52,5.90
2008,10,19,19,53,5.90
2008,10,19,19,54,5.90
2008,10,19,19,55,5.90
2008,10,19,19,56,5.90
2008,10,19,19,57,5.90
2008,10,19,19,58,5.90
2008,10,19,19,59,5.90
2008,10,19,20,00,5.90
2008,10,19,20,01,5.90
2008,10,19,20,02,5.80
2008,10,19,20,03,5.80
2008,10,19,20,04,5.80
2008,10,19,20,05,5.80
2008,10,19,20,06,5.80
2008,10,19,20,07,5.80
2008,10,19,20,08,5.80
2008,10,19,20,09,5.80
2008,10,19,20,10,5.80
2008,10,19,20,11,5.80
2008,10,19,20,12,5.80
2008,10,19,20,13,5.80
2008,10,19,20,14,5.80
2008,10,19,20,15,5.80
2008,10,19,20,16,5.80
2008,10,19,20,17,5.70
2008,10,19,20,18,5.70
2008,10,19,20,19,5.70
2008,10,19,20,20,5.70
2008,10,19,20,21,5.70
2008,10,19,20,22,5.70
2008,10,19,20,23,5.70
2008,10,19,20,24,5.70
2008,10,19,20,25,5.70
2008,10,19,20,26,5.70
2008,10,19,20,27,5.70
2008,10,19,20,28,5.70
2008,10,19,20,29,5.70
2008,10,19,20,30,5.70
2008,10,19,20,31,5.70
2008,10,19,20,32,5.60
2008,10,19,20,33,5.60
2008,10,19,20,34,5.60
2008,10,19,20,35,5.60
2008,10,19,20,36,5.60
2008,10,19,20,37,5.60
2008,10,19,20,38,5.60
2008,10,19,20,39,5.60
2008,10,19,20,40,5.60
2008,10,19,20,41,5.60
2008,10,19,20,42,5.60
2008,10,19,20,43,5.60
2008,10,19,20,44,5.60
2008,10,19,20,45,5.60
2008,10,19,20,46,5.60
2008,10,19,20,47,5.60
2008,10,19,20,48,5.60
2008,10,19,20,49,5.50
2008,10,19,20,50,5.50
2008,10,19,20,51,5.50
2008,10,19,20,52,5.50
2008,10,19,20,53,5.50
2008,10,19,20,54,5.50
2008,10,19,20,55,5.50
2008,10,19,20,56,5.50
2008,10,19,20,57,5.50
2008,10,19,20,58,5.40
2008,10,19,20,59,5.40
2008,10,19,21,00,5.40
2008,10,19,21,01,5.40
2008,10,19,21,02,5.40
2008,10,19,21,03,5.40
2008,10,19,21,04,5.40
2008,10,19,21,05,5.40
2008,10,19,21,06,5.40
2008,10,19,21,07,5.40
2008,10,19,21,08,5.40
2008,10,19,21,09,5.40
2008,10,19,21,10,5.40
2008,10,19,21,11,5.40
2008,10,19,21,12,5.40
2008,10,19,21,13,5.40
2008,10,19,21,14,5.40
2008,10,19,21,15,5.40
2008,10,19,21,16,5.40
2008,10,19,21,17,5.40
2008,10,19,21,18,5.40
2008,10,19,21,19,5.40
2008,10,19,21,20,5.40
2008,10,19,21,21,5.40
2008,10,19,21,22,5.40
2008,10,19,21,23,5.40
2008,10,19,21,24,5.40
2008,10,19,21,25,5.40
2008,10,19,21,26,5.40
2008,10,19,21,27,5.30
2008,10,19,21,28,5.30
2008,10,19,21,29,5.30
2008,10,19,21,30,5.30
2008,10,19,21,31,5.30
2008,10,19,21,32,5.30
2008,10,19,21,33,5.30
2008,10,19,21,34,5.30
2008,10,19,21,35,5.30
2008,10,19,21,36,5.30
2008,10,19,21,37,5.30
2008,10,19,21,38,5.30
2008,10,19,21,39,5.30
2008,10,19,21,40,5.30
2008,10,19,21,41,5.30
2008,10,19,21,42,5.30
2008,10,19,21,43,5.30
2008,10,19,21,44,5.30
2008,10,19,21,45,5.30
2008,10,19,21,46,5.30
2008,10,19,21,47,5.30
2008,10,19,21,48,5.30
2008,10,19,21,49,5.30
2008,10,19,21,50,5.30
2008,10,19,21,51,5.30
2008,10,19,21,52,5.30
2008,10,19,21,53,5.30
2008,10,19,21,54,5.30
2008,10,19,21,55,5.30
2008,10,19,21,56,5.30
2008,10,19,21,57,5.30
2008,10,19,21,58,5.30
2008,10,19,21,59,5.30
2008,10,19,22,00,5.30
2008,10,19,22,01,5.30
2008,10,19,22,02,5.30
2008,10,19,22,03,5.30
2008,10,19,22,04,5.30
2008,10,19,22,05,5.30
2008,10,19,22,06,5.30
2008,10,19,22,07,5.30
2008,10,19,22,08,5.30
2008,10,19,22,09,5.30
2008,10,19,22,10,5.30
2008,10,19,22,11,5.40
2008,10,19,22,12,5.40
2008,10,19,22,13,5.40
2008,10,19,22,14,5.40
2008,10,19,22,15,5.40
2008,10,19,22,16,5.40
2008,10,19,22,17,5.40
2008,10,19,22,18,5.40
2008,10,19,22,19,5.40
2008,10,19,22,20,5.40
2008,10,19,22,21,5.40
2008,10,19,22,22,5.40
2008,10,19,22,23,5.40
2008,10,19,22,24,5.40
2008,10,19,22,25,5.40
2008,10,19,22,26,5.40
2008,10,19,22,27,5.40
2008,10,19,22,28,5.40
2008,10,19,22,29,5.40
2008,10,19,22,30,5.40
2008,10,19,22,31,5.40
2008,10,19,22,32,5.40
2008,10,19,22,33,5.40
2008,10,19,22,34,5.40
2008,10,19,22,35,5.40
2008,10,19,22,36,5.40
2008,10,19,22,37,5.40
2008,10,19,22,38,5.30
2008,10,19,22,39,5.30
2008,10,19,22,40,5.30
2008,10,19,22,41,5.30
2008,10,19,22,42,5.30
2008,10,19,22,43,5.30
2008,10,19,22,44,5.30
2008,10,19,22,45,5.30
2008,10,19,22,46,5.30
2008,10,19,22,47,5.30
2008,10,19,22,48,5.30
2008,10,19,22,49,5.30
2008,10,19,22,50,5.30
2008,10,19,22,51,5.30
2008,10,19,22,52,5.30
2008,10,19,22,53,5.30